CW5646 Weather Reports


Display with metric or nautical units.
time (UTC)temp
F
wind
direction
speed
MPH
gust
MPH
rain 1hr
in
rain 24hr
in
rain mn
in
humidity
%
barometer
mb
20260507133729 50 185 0.0 0.0 0.00 0.00 0.00 84 1020.3
20260507132214 51 185 0.0 0.0 0.00 0.00 0.00 85 1020.2
20260507130731 51 189 0.0 0.0 0.00 0.00 0.00 85 1020.3
20260507125223 51 189 0.0 0.0 0.00 0.00 0.00 85 1020.3
20260507123745 51 189 0.0 0.0 0.00 0.00 0.00 84 1020.3
20260507122240 51 189 0.0 0.0 0.00 0.00 0.00 85 1020.3
20260507120722 51 189 0.0 0.0 0.00 0.00 0.00 86 1020.4
20260507115224 52 189 0.0 0.0 0.00 0.00 0.00 85 1020.5
20260507113720 52 189 0.0 0.0 0.00 0.00 0.00 84 1020.6
20260507112241 52 189 0.0 0.0 0.00 0.00 0.00 84 1020.7
20260507110730 52 189 0.0 0.0 0.00 0.00 0.00 85 1020.7
20260507105223 52 189 0.0 0.0 0.00 0.00 0.00 84 1020.8
20260507103741 52 189 0.0 0.0 0.00 0.00 0.00 85 1020.8
20260507102224 52 189 0.0 0.0 0.00 0.00 0.00 85 1020.8
20260507100739 52 189 0.0 0.0 0.00 0.00 0.00 85 1020.9
20260507095223 52 189 0.0 0.0 0.00 0.00 0.00 86 1021.1
20260507093738 53 189 0.0 0.0 0.00 0.00 0.00 86 1021.3
20260507092218 53 189 0.0 0.0 0.00 0.00 0.00 86 1021.3
20260507090732 53 189 0.0 0.0 0.00 0.00 0.00 86 1021.4
20260507085217 53 189 0.0 0.0 0.00 0.00 0.00 86 1021.3
20260507083725 53 189 0.0 0.0 0.00 0.00 0.00 86 1021.3
20260507082218 53 189 0.0 0.0 0.00 0.00 0.00 86 1021.3
20260507080726 53 189 0.0 0.0 0.00 0.00 0.00 86 1021.3
20260507075218 53 189 0.0 0.0 0.00 0.00 0.00 85 1021.3
20260507073733 53 189 0.0 1.0 0.00 0.00 0.00 84 1021.3
20260507072226 53 189 0.0 1.0 0.00 0.00 0.00 85 1021.3
20260507070742 53 189 0.0 2.0 0.00 0.00 0.00 85 1021.3
20260507065229 53 189 0.0 2.0 0.00 0.00 0.00 85 1021.3
20260507063727 54 189 0.0 2.0 0.00 0.00 0.00 85 1021.3
20260507062243 54 143 0.0 2.0 0.00 0.00 0.00 86 1021.3
20260507060725 54 143 1.0 2.0 0.00 0.00 0.00 86 1021.3
20260507055238 54 144 1.0 4.0 0.00 0.00 0.00 86 1021.3
20260507053727 54 152 0.0 2.0 0.00 0.00 0.00 86 1021.3
20260507052222 54 152 0.0 2.0 0.00 0.00 0.00 85 1021.3
20260507050727 55 152 0.0 2.0 0.00 0.00 0.00 84 1021.3
20260507045229 55 153 1.0 4.0 0.00 0.00 0.00 84 1021.3
20260507043725 56 141 1.0 4.0 0.00 0.00 0.00 83 1021.2
20260507042215 56 122 1.0 3.0 0.00 0.00 0.00 83 1021.0
20260507040726 56 171 1.0 3.0 0.00 0.00 0.00 83 1020.8
20260507035217 57 180 2.0 4.0 0.00 0.00 0.00 83 1020.7
20260507033719 58 116 1.0 2.0 0.00 0.00 0.00 83 1020.5
20260507032241 58 81 0.0 2.0 0.00 0.00 0.00 83 1020.3
20260507030721 59 52 0.0 3.0 0.00 0.00 0.00 80 1020.2
20260507025215 59 101 0.0 2.0 0.00 0.00 0.00 82 1020.1
20260507023742 60 94 1.0 2.0 0.00 0.00 0.00 81 1019.8
20260507022215 60 112 0.0 2.0 0.00 0.00 0.00 80 1019.8
20260507020726 61 112 1.0 4.0 0.00 0.00 0.00 77 1019.9
20260507015215 62 129 0.0 5.0 0.00 0.00 0.00 77 1020.1
20260507013718 63 66 1.0 4.0 0.00 0.00 0.00 75 1020.1
20260507012217 64 328 2.0 5.0 0.00 0.00 0.00 75 1019.9
20260507010754 64 116 1.0 3.0 0.00 0.00 0.00 76 1019.9
20260507005220 65 69 0.0 6.0 0.00 0.00 0.00 76 1019.9
20260507003750 65 193 0.0 5.0 0.00 0.00 0.00 76 1019.8
20260507002215 66 110 1.0 4.0 0.00 0.00 0.00 76 1019.8
20260507000717 66 94 1.0 5.0 0.00 0.00 0.00 75 1019.8
20260506235242 66 137 1.0 3.0 0.00 0.00 0.00 73 1019.8
20260506233734 66 149 2.0 3.0 0.00 0.00 0.00 76 1019.7
20260506232250 66 113 2.0 5.0 0.00 0.00 0.00 73 1019.8
20260506230729 67 104 2.0 4.0 0.00 0.00 0.00 72 1020.1
20260506225215 68 97 0.0 3.0 0.00 0.00 0.00 73 1020.2
20260506223735 68 96 1.0 4.0 0.00 0.00 0.00 70 1020.3
20260506222220 68 52 1.0 3.0 0.00 0.00 0.00 72 1020.3
20260506220720 68 306 1.0 4.0 0.00 0.00 0.00 71 1020.3
20260506215225 68 241 1.0 5.0 0.00 0.00 0.00 69 1020.3
20260506213801 68 185 3.0 8.0 0.00 0.00 0.00 72 1020.4
20260506212233 68 255 3.0 7.0 0.00 0.00 0.00 70 1020.6
20260506210714 66 243 0.0 5.0 0.00 0.00 0.00 76 1020.8
20260506205230 65 117 1.0 4.0 0.00 0.00 0.00 76 1020.8
20260506203738 65 213 0.0 5.0 0.00 0.00 0.00 76 1020.7
20260506202227 64 141 2.0 7.0 0.00 0.00 0.00 76 1020.7
20260506200725 65 114 2.0 5.0 0.00 0.00 0.00 77 1020.8
20260506195218 62 170 1.0 2.0 0.00 0.00 0.00 79 1021.1
20260506193712 63 244 1.0 5.0 0.00 0.00 0.00 80 1021.2
20260506192217 63 245 1.0 4.0 0.00 0.00 0.00 78 1020.9
20260506190725 62 88 0.0 2.0 0.00 0.00 0.00 80 1020.9
20260506185217 62 100 1.0 4.0 0.00 0.00 0.00 80 1020.8
20260506183715 62 110 1.0 4.0 0.00 0.00 0.00 80 1020.8
20260506182222 61 264 3.0 4.0 0.00 0.00 0.00 81 1020.8
20260506180719 60 234 0.0 3.0 0.00 0.00 0.00 84 1020.9
20260506175239 58 147 0.0 2.0 0.00 0.00 0.00 86 1020.9
20260506173723 58 145 0.0 2.0 0.00 0.00 0.00 86 1020.7
20260506172215 57 144 0.0 2.0 0.00 0.00 0.00 88 1020.7
20260506170719 57 85 0.0 2.0 0.00 0.00 0.00 89 1020.7
20260506165222 56 43 0.0 2.0 0.00 0.00 0.00 89 1020.7
20260506163714 56 118 0.0 0.0 0.00 0.00 0.00 89 1020.8
20260506162215 56 118 0.0 2.0 0.00 0.00 0.00 89 1020.5
20260506160728 56 118 1.0 3.0 0.00 0.00 0.00 90 1020.3
20260506155243 55 111 2.0 5.0 0.00 0.00 0.00 89 1020.0
20260506153730 55 104 2.0 5.0 0.00 0.00 0.00 90 1020.3
20260506152222 55 83 0.0 2.0 0.00 0.00 0.00 90 1020.7
20260506150712 55 71 0.0 1.0 0.00 0.00 0.00 90 1020.7
20260506145224 55 77 0.0 3.0 0.00 0.00 0.00 90 1020.3
20260506143725 55 77 0.0 2.0 0.00 0.00 0.00 90 1020.2
20260506142237 55 77 0.0 5.0 0.00 0.00 0.00 90 1019.7
20260506140724 55 95 2.0 4.0 0.00 0.00 0.00 91 1019.7
20260506135228 55 93 1.0 3.0 0.00 0.00 0.00 91 1019.7